Location: Neuvy Saint Sepulchre
(46.5953°N, 1.8122°E)
Time: 16:43:17
(UTC+02:00)

ISS - Pass Details

Date: 09 May 2026
Orbit: 414 x 424 km, 51.6° (Epoch: 21 May)

Event Time Altitude Azimuth Distance (km) Brightness Sun altitude
Exits shadow 04:57:08 18° 267° (W) 1,098 -2.1 -13.4°
Maximum altitude 04:58:53 29° 219° (SW) 796 -2.9 -13.1°
Drops below altitude 10° 05:01:51 10° 157° (SSE) 1,494 -1.2 -12.8°
Sets 05:04:06 0° 146° (SE) 2,356 0.0 -12.5°
